Find Starlink 33743

NORAD ID: 63440 Int'l Des: 2025-069 Owner: SPXS Country: US Constellation: starlink operational
LEOCIRCULAR

Live-Position

3D-Globus wird geladen...

Über Starlink 33743

Beschreibung wird geladen...

Nächste Überflüge

Passes for default location (London). Set your location on the main map for personalized predictions.

Höhenverlauf

Loading altitude history...

Zweizeiliger Elementsatz

1 63440U 25069H 26124.32795115 .00036743 00000-0 84933-3 0 9990
2 63440 53.1608 243.3011 0001699 89.2846 270.8355 15.42174562 61822
Epoch: 4. Mai 2026 • Age: 9 hours

Aktueller Status

Höhe 439.4 km
Geschwindigkeit 7.65 km/s
Subsatellitenpunkt 13.60°N, 130.08°E
Startdatum 4. Apr. 2025
Alter 1 years
Typ internet

Technische Details

Klassifizierung Payload
Masse 575.00 kg
Trockenmasse 530.00 kg
Gesamtmasse 575.00 kg
Länge 0.30 m
Durchmesser 4.10 m
Spannweite 29.00 m
Form Box + pan
Hersteller SPXS
Bus-Typ Starlink V2MO
Phasenstatus In Orbit
Besitzer/Staat SPXS/US

Most Searched